Simultaneous Nadir Overpasses (SNOs) Predictions

Prediction of SNOs between METOP-B and TERRA Satellite Orbit:

Table of predicted SNOs for the next 14.0 days since TLE Epoch: 6/29/2013
Index Date (METOP-B) Time (METOP-B) Lat,Lon (METOP-B) SZA (METOP-B ) Date (TERRA) Time (TERRA) Lat,Lon (TERRA) SZA (TERRA ) Distance(km) Time Diff (sec)
1 07/01/2013 00:17:36 81.30,-137.26 61.01 07/01/2013 00:17:46 81.30,-137.31 61.01 0.79 10
2 07/01/2013 01:08:16 -81.30, 30.13 118.99 07/01/2013 01:07:13 -81.29, 30.24 119.01 2.03 63
3 07/03/2013 19:51:58 81.30, -70.86 61.20 07/03/2013 19:51:59 81.31, -70.73 61.22 2.48 1
4 07/03/2013 20:42:37 -81.31, 96.97 118.74 07/03/2013 20:41:26 -81.30, 96.86 118.79 1.98 71
5 07/06/2013 14:35:39 -81.29,-172.25 118.61 07/06/2013 14:36:46 -81.28,-172.33 118.59 1.39 67
6 07/
